彩虹 22星 (RADUGA 22)

导读

RADUGA 22(虹-22)是独联体(CIS,继承自苏联)所属的第一代“虹”系列地球同步轨道通信卫星,于1988年10月20日发射入轨。作为苏联/俄罗斯最早的同步通信卫星家族成员,它基于KAUR-3平台研制,配备C频段转发器,可向东半球提供军事通信、民用电视与电报电话服务,设计寿命3年,支撑了多领域通信需求,是该系列早期组网的重要卫星。

基本信息
目录编号:
19596
目录名称:
RADUGA 22
国际标识:
1988-095A
轨道中心:
EARTH
卫星名称:
彩虹 22星
卫星全名:
彩虹 22星 (RADUGA 22)
卫星状态:
在轨 (已飞行13840 天)
发射日期:
1988-10-20 UTC
国别 :
俄罗斯(独联体) (CIS)
星等 :
--
该卫星已列入 空间交会检测服务 Space Conjunction Data Service (SCDS) ,当前飞行风险评估等级: 无高风险
轨道信息
数据来源 国际轨道数据 AOE轨道数据
星历时间 2026-09-11T04:59:01+0800
10小时前
查看轨道信息
2026-09-06T05:00:00+0800
5天前
查看轨道信息
半长轴 42183.184km 42183.802km
偏心率 0.0006043 0.0005795
轨道倾角 11.447° 11.453°
近地点辐角 201.647° 201.766°
升交点赤经 329.587° 329.622°
平近点角 162.146° 158.529°
近地点 35779.555km 35781.219km
远地点 35830.539km 35830.111km
周期 1437.040分钟 1437.071分钟
每日圈数 1.00206 1.002038
详细信息
平衡模式:
三轴稳定
覆盖范围:
全球
运营商:
俄罗斯国家航天集团
运营商所在国:
俄罗斯
制造商(研发单位):
普里克拉德诺伊·梅哈尼基设计局
制造商所在国:
俄罗斯联邦
使用方式:
暂无
卫星简介
彩虹卫星(Raduga, Gran)是苏联用于军事和通信目的的一系列地球静止通信卫星。彩虹卫星旨在支持军事通信、Orbita地面电视网络,并在整个东半球(极地地区除外)提供电话和电报通信。该卫星已退役。
2D轨道图
3D轨道图
轨道高度分析图
轨道倾角分析图
轨道综合分析图
查看轨道综合分析图
与全量物体交会距离演化趋势
与全量物体交会风险概率演化趋势